Tracking 21473 objects as of 19-Sep-2020
HD Live streaming from Space Station
objects crossing your sky now

ANIK C1 R/B(PAM-D)

Track ANIK C1 R/B(PAM-D) now!


NORAD ID: 15644
Int'l Code: 1985-028D
Perigee: 337.0 km
Apogee: 30,267.8 km
Inclination: 23.3 °
Period: 529.2 minutes
Semi major axis: 21673 km
RCS: 2.9686 m2 (large)
Launch date: April 12, 1985
Source: United States (US)
Launch site: AIR FORCE EASTERN TEST RANGE (AFETR)

Note: This is a ROCKET BODY
aabbcc
Your satellite tracking list
Your tracking list is empty




NASA's NSSDC Master Catalog

Two Line Element Set (TLE):
1 15644U 85028D   20262.46071051 +.00000042 +00000-0 +27726-4 0  9993
2 15644 023.2747 062.2766 6904972 026.0181 356.4509 02.72090524328883
Source of the keplerian elements: AFSPC